Kincheloe, MI

4:27 AM EST on February 25, 2017 (GMT -0500)
Chippewa County International

Weather History for KCIU - December, 2013

Change the Weather History Date:

Wednesday, December 18, 2013

  Actual Average Record
Temperature  
Mean Temperature 18 °F -  
Max Temperature 24 °F 27 °F 39 °F (1997)
Min Temperature 14 °F 10 °F -11 °F (1983)
Degree Days  
Heating Degree Days 46    
Moisture  
Dew Point 17 °F    
Average Humidity 91    
Maximum Humidity 100    
Minimum Humidity 74    
Precipitation  
Precipitation 0.00 in - - ()
Sea Level Pressure  
Sea Level Pressure 29.86 in    
Wind  
Wind Speed 9 mph (SW)    
Max Wind Speed 15 mph    
Max Gust Speed 21 mph    
Visibility 9 miles    
Events      
Averages and records for this station are not official NWS values.
T = Trace of Precipitation, MM = Missing Value Source: NWS Daily Summary

Daily Weather History Graph

Daily Weather History Graph

Search for Another Location

Airport or City:

Trip Planner

Search our weather history database for the weather conditions in past years. The results will help you decide how hot, cold, wet, or windy it might be!

Date:

Astronomy

Dec. 18, 2013 Rise Set
Actual Time 8:16 AM EST 4:53 PM EST
Civil Twilight 7:41 AM EST 5:27 PM EST
Nautical Twilight 7:03 AM EST 6:06 PM EST
Astronomical Twilight 6:26 AM EST 6:42 PM EST
Moon 6:29 PM EST (12/18) 8:50 AM EST (12/18)
Length of Visible Light 9h 46m
Length of Day
8h 36m
Full, 98% of the Moon is Illuminated
Dec 18
Full
Dec 25
Last Quarter
Jan 1
New
Jan 7
First Quarter
Jan 15
Full

Hourly Weather History & Observations

Time (EST) Temp. Windchill Dew Point Humidity Pressure Visibility Wind Dir Wind Speed Gust Speed Precip Events Conditions
12:15 AM 17.6 °F 7.3 °F 17.6 °F 100% 29.83 in 10.0 mi West 8.1 mph - N/A   Overcast
12:35 AM 19.4 °F 9.5 °F 17.6 °F 93% 29.83 in 10.0 mi West 8.1 mph - N/A   Overcast
12:55 AM 19.4 °F 8.6 °F 17.6 °F 93% 29.83 in 10.0 mi West 9.2 mph - N/A   Overcast
1:15 AM 19.4 °F 7.9 °F 17.6 °F 93% 29.83 in 10.0 mi West 10.4 mph - N/A   Overcast
1:35 AM 19.4 °F 7.2 °F 17.6 °F 93% 29.83 in 10.0 mi West 11.5 mph - N/A   Overcast
1:55 AM 19.4 °F 6.6 °F 17.6 °F 93% 29.84 in 10.0 mi West 12.7 mph 18.4 mph N/A   Overcast
2:15 AM 19.4 °F 7.2 °F 17.6 °F 93% 29.85 in 10.0 mi West 11.5 mph - N/A   Overcast
2:35 AM 19.4 °F 6.0 °F 17.6 °F 93% 29.85 in 10.0 mi West 13.8 mph 17.3 mph N/A   Overcast
2:55 AM 19.4 °F 5.5 °F 17.6 °F 93% 29.85 in 10.0 mi West 15.0 mph 20.7 mph N/A   Overcast
3:15 AM 19.4 °F 7.2 °F 15.8 °F 86% 29.86 in 10.0 mi West 11.5 mph 18.4 mph N/A   Overcast
3:35 AM 17.6 °F 5.0 °F 15.8 °F 93% 29.86 in 10.0 mi West 11.5 mph 17.3 mph N/A   Overcast
3:55 AM 17.6 °F 4.3 °F 15.8 °F 93% 29.86 in 10.0 mi West 12.7 mph 17.3 mph N/A   Overcast
4:15 AM 17.6 °F 5.7 °F 15.8 °F 93% 29.86 in 10.0 mi West 10.4 mph 16.1 mph N/A   Overcast
4:35 AM 17.6 °F 5.7 °F 15.8 °F 93% 29.86 in 10.0 mi West 10.4 mph - N/A   Overcast
4:55 AM 17.6 °F 5.7 °F 15.8 °F 93% 29.87 in 10.0 mi West 10.4 mph - N/A   Overcast
5:15 AM 17.6 °F 7.3 °F 15.8 °F 93% 29.88 in 10.0 mi West 8.1 mph - N/A   Overcast
5:35 AM 17.6 °F 6.4 °F 15.8 °F 93% 29.88 in 10.0 mi West 9.2 mph 17.3 mph N/A   Overcast
5:55 AM 17.6 °F 5.0 °F 15.8 °F 93% 29.88 in 10.0 mi West 11.5 mph - N/A   Overcast
6:15 AM 17.6 °F 4.3 °F 15.8 °F 93% 29.89 in 10.0 mi West 12.7 mph - N/A   Overcast
6:35 AM 17.6 °F 5.0 °F 15.8 °F 93% 29.89 in 10.0 mi West 11.5 mph - N/A   Overcast
6:55 AM 17.6 °F 6.4 °F 15.8 °F 93% 29.90 in 10.0 mi WSW 9.2 mph - N/A   Overcast
7:15 AM 15.8 °F 5.1 °F 15.8 °F 100% 29.91 in 10.0 mi West 8.1 mph - N/A   Overcast
7:35 AM 15.8 °F 3.4 °F 15.8 °F 100% 29.91 in 10.0 mi WSW 10.4 mph - N/A   Overcast
7:55 AM 15.8 °F 3.4 °F 14.0 °F 93% 29.91 in 10.0 mi WSW 10.4 mph - N/A   Overcast
8:15 AM 14.0 °F 2.9 °F 12.2 °F 93% 29.92 in 10.0 mi WSW 8.1 mph - N/A   Mostly Cloudy
8:35 AM 14.0 °F 3.9 °F 12.2 °F 93% 29.92 in 10.0 mi WSW 6.9 mph - N/A   Overcast
8:55 AM 15.8 °F 5.1 °F 14.0 °F 93% 29.93 in 10.0 mi WSW 8.1 mph - N/A   Overcast
9:15 AM 15.8 °F 6.1 °F 14.0 °F 93% 29.93 in 10.0 mi WSW 6.9 mph - N/A   Overcast
9:35 AM 15.8 °F 6.1 °F 14.0 °F 93% 29.93 in 10.0 mi SW 6.9 mph - N/A   Overcast
9:55 AM 15.8 °F 5.1 °F 14.0 °F 93% 29.94 in 10.0 mi WSW 8.1 mph - N/A   Overcast
10:15 AM 17.6 °F 5.7 °F 14.0 °F 86% 29.94 in 10.0 mi WSW 10.4 mph - N/A   Overcast
10:35 AM 17.6 °F 5.7 °F 14.0 °F 86% 29.94 in 10.0 mi WSW 10.4 mph 16.1 mph N/A   Mostly Cloudy
10:55 AM 19.4 °F 12.8 °F 15.8 °F 86% 29.93 in 10.0 mi SW 4.6 mph - N/A   Overcast
11:15 AM 17.6 °F 5.0 °F 14.0 °F 86% 29.93 in 10.0 mi WSW 11.5 mph 17.3 mph N/A   Overcast
11:35 AM 19.4 °F 9.5 °F 15.8 °F 86% 29.93 in 10.0 mi WSW 8.1 mph - N/A   Overcast
11:55 AM 21.2 °F 10.9 °F 15.8 °F 80% 29.92 in 10.0 mi SW 9.2 mph 17.3 mph N/A   Mostly Cloudy
12:15 PM 21.2 °F 10.9 °F 15.8 °F 80% 29.91 in 10.0 mi WSW 9.2 mph - N/A   Scattered Clouds
12:35 PM 21.2 °F 10.9 °F 15.8 °F 80% 29.92 in 10.0 mi WSW 9.2 mph - N/A   Partly Cloudy
12:55 PM 21.2 °F 12.6 °F 15.8 °F 80% 29.92 in 10.0 mi SW 6.9 mph - N/A   Clear
1:15 PM 21.2 °F 11.7 °F 15.8 °F 80% 29.91 in 10.0 mi SSW 8.1 mph - N/A   Partly Cloudy
1:35 PM 21.2 °F 10.1 °F 14.0 °F 74% 29.91 in 10.0 mi WSW 10.4 mph - N/A   Clear
1:55 PM 21.2 °F 13.6 °F 14.0 °F 74% 29.90 in 10.0 mi WSW 5.8 mph - N/A   Scattered Clouds
2:15 PM 21.2 °F 12.6 °F 15.8 °F 80% 29.90 in 10.0 mi SW 6.9 mph - N/A   Overcast
2:35 PM 21.2 °F 10.9 °F 15.8 °F 80% 29.90 in 9.0 mi WSW 9.2 mph - N/A   Overcast
2:55 PM 21.2 °F 11.7 °F 15.8 °F 80% 29.90 in 10.0 mi SW 8.1 mph - N/A   Overcast
3:15 PM 21.2 °F 14.9 °F 15.8 °F 80% 29.89 in 10.0 mi SW 4.6 mph - N/A   Overcast
3:35 PM 19.4 °F 11.5 °F 15.8 °F 86% 29.89 in 10.0 mi WSW 5.8 mph - N/A   Overcast
3:55 PM 19.4 °F - 15.8 °F 86% 29.88 in 10.0 mi Calm Calm - N/A   Overcast
4:15 PM 21.2 °F - 15.8 °F 80% 29.88 in 10.0 mi Calm Calm - N/A   Overcast
4:35 PM 21.2 °F - 15.8 °F 80% 29.87 in 1.8 mi Calm Calm - N/A   Overcast
4:55 PM 19.4 °F - 15.8 °F 86% 29.86 in 0.8 mi Calm Calm - N/A   Overcast
5:15 PM 19.4 °F 11.5 °F 17.6 °F 93% 29.85 in 1.0 mi East 5.8 mph - N/A   Overcast
5:35 PM 19.4 °F 9.5 °F 17.6 °F 93% 29.84 in 1.8 mi ESE 8.1 mph - N/A   Overcast
5:55 PM 19.4 °F 10.4 °F 17.6 °F 93% 29.84 in 1.8 mi ESE 6.9 mph - N/A   Overcast
6:15 PM 19.4 °F 9.5 °F 17.6 °F 93% 29.83 in 3.0 mi ESE 8.1 mph - N/A   Overcast
6:35 PM 19.4 °F 8.6 °F 17.6 °F 93% 29.82 in 9.0 mi East 9.2 mph - N/A   Overcast
6:55 PM 19.4 °F 9.5 °F 17.6 °F 93% 29.82 in 10.0 mi ESE 8.1 mph - N/A   Overcast
7:15 PM 19.4 °F 7.9 °F 17.6 °F 93% 29.80 in 10.0 mi ESE 10.4 mph - N/A   Overcast
7:35 PM 19.4 °F 7.9 °F 17.6 °F 93% 29.80 in 10.0 mi ESE 10.4 mph - N/A   Overcast
7:55 PM 19.4 °F 7.9 °F 19.4 °F 100% 29.81 in 10.0 mi SE 10.4 mph - N/A   Overcast
8:15 PM 19.4 °F 7.2 °F 19.4 °F 100% 29.79 in 10.0 mi SE 11.5 mph - N/A   Overcast
8:35 PM 19.4 °F 9.5 °F 19.4 °F 100% 29.80 in 10.0 mi SE 8.1 mph - N/A   Overcast
8:55 PM 19.4 °F 7.9 °F 19.4 °F 100% 29.78 in 10.0 mi SE 10.4 mph - N/A   Overcast
9:15 PM 19.4 °F 8.6 °F 17.6 °F 93% 29.77 in 10.0 mi SE 9.2 mph - N/A   Overcast
9:35 PM 19.4 °F 8.6 °F 19.4 °F 100% 29.76 in 10.0 mi ESE 9.2 mph - N/A   Overcast
9:55 PM 21.2 °F 10.9 °F 21.2 °F 100% 29.75 in 10.0 mi SE 9.2 mph - N/A   Overcast
10:15 PM 21.2 °F 10.9 °F 21.2 °F 100% 29.74 in 10.0 mi SE 9.2 mph - N/A   Overcast
10:35 PM 21.2 °F 10.1 °F 19.4 °F 93% 29.73 in 10.0 mi SE 10.4 mph - N/A   Overcast
10:55 PM 23.0 °F 13.1 °F 21.2 °F 93% 29.72 in 10.0 mi SE 9.2 mph - N/A   Overcast
11:15 PM 23.0 °F 13.9 °F 21.2 °F 93% 29.72 in 10.0 mi SE 8.1 mph - N/A   Overcast
11:35 PM 23.0 °F 15.8 °F 21.2 °F 93% 29.71 in 10.0 mi SE 5.8 mph - N/A   Overcast
11:55 PM 23.0 °F 15.8 °F 21.2 °F 93% 29.71 in 10.0 mi SE 5.8 mph - N/A   Overcast